GFSGL_925_temp_057.txt.gz
Temp
24 24 24 24 24 24 25 26 27 28 28 27 28 27 26 26 26 25 25 25 25 25 25 24 25 25 26 26 26 27 27 27 24 26 26 26 26 25 25 24 24 23 23
25 24 24 24 24 23 24 25 26 27 28 28 26 27 27 26 26 25 25 25 25 25 25 24 24 25 25 26 26 26 27 26 26 25 26 26 26 25 25 24 23 23 23
25 25 24 24 24 24 23 24 25 26 27 28 28 26 26 26 26 26 26 25 25 25 25 25 25 25 25 25 25 25 26 26 26 26 26 25 25 25 24 24 24 23 23
26 25 25 25 24 24 24 24 24 25 26 26 27 27 26 26 26 26 26 25 25 25 25 25 25 25 25 25 25 25 25 25 26 25 25 24 24 24 24 23 23 23 23
27 27 26 25 25 25 25 24 24 25 26 25 26 26 26 26 26 26 26 25 25 25 25 25 25 25 25 25 24 25 25 25 24 24 23 24 24 23 22 23 23 23 23
30 28 27 26 25 25 25 25 24 24 25 25 25 25 25 26 25 26 26 24 25 24 24 24 25 25 25 25 25 25 25 24 23 22 22 23 23 24 24 23 23 21 20
30 29 28 27 26 26 25 25 25 25 25 24 25 25 25 25 25 26 26 25 24 24 24 24 24 24 24 24 24 24 24 24 24 24 23 23 23 24 24 24 23 22 22
31 29 29 28 26 26 26 25 25 25 25 25 25 25 25 25 25 25 26 26 25 25 25 24 24 24 24 24 23 23 23 23 23 23 23 23 24 24 24 24 23 22 20
30 29 29 28 27 26 26 26 25 26 25 25 25 25 25 25 25 25 25 26 25 25 25 25 24 24 24 24 24 23 22 22 22 22 23 23 23 23 23 23 21 19 18
31 31 31 29 28 27 26 26 26 26 26 25 25 25 25 25 25 25 25 25 24 25 25 25 25 25 24 24 24 23 22 22 22 21 21 22 22 22 22 20 20 18 18
31 33 32 31 29 28 27 26 26 26 25 25 25 25 25 25 25 25 25 25 25 25 25 25 25 25 25 25 24 24 23 23 23 22 21 20 20 20 20 20 18 17 17
33 31 31 31 30 28 27 26 26 26 25 25 25 25 25 25 25 25 25 25 25 25 25 25 25 25 25 26 25 25 25 24 23 21 19 18 18 18 17 18 18 17 17
32 31 31 31 30 29 28 26 26 26 26 25 25 25 25 25 26 26 26 25 25 25 25 25 25 25 25 26 25 25 25 23 21 20 19 19 18 18 17 17 17 17 17
31 30 29 29 29 29 29 27 26 26 25 26 25 25 26 26 25 26 26 26 25 25 25 24 24 24 24 24 24 23 24 23 22 20 19 19 18 17 17 17 17 17 17
30 29 29 29 28 27 27 26 26 27 27 26 26 26 25 25 26 27 27 26 26 26 25 24 22 22 22 22 21 21 20 20 20 19 19 18 18 17 17 17 16 16 15
28 28 28 28 27 26 24 22 23 25 25 26 26 26 26 26 26 27 27 27 27 26 22 22 21 21 20 19 19 18 18 18 18 18 17 18 17 17 17 16 16 15 15
24 27 28 28 28 23 21 21 18 19 22 25 26 27 26 25 25 25 25 24 24 23 23 21 19 19 18 18 17 17 17 17 17 18 18 17 17 16 16 15 15 16 16
24 26 27 28 29 24 22 21 22 20 20 20 22 23 24 24 24 24 24 23 21 20 20 19 18 17 17 17 17 17 17 17 17 17 17 17 17 17 16 15 15 16 17
25 26 27 28 29 27 24 22 21 21 18 16 17 19 20 21 21 20 20 22 19 18 18 18 18 17 17 17 17 17 17 17 17 17 17 17 16 16 15 16 16 17 18
24 26 26 27 26 26 24 23 21 19 18 18 18 17 17 18 17 16 18 18 18 18 18 18 18 18 17 17 17 16 16 16 16 16 16 16 17 16 15 16 17 18 19
23 25 25 24 24 23 22 22 22 21 20 19 19 19 19 18 17 17 17 17 18 18 18 18 18 18 17 16 16 16 16 16 16 16 17 17 16 17 17 18 19 19 19
22 23 23 23 23 23 23 23 23 20 20 18 18 19 19 19 18 18 18 18 18 19 19 19 18 18 18 17 16 16 16 17 17 17 16 16 17 18 19 19 19 19 19
23 23 22 23 22 22 22 22 21 21 19 19 18 18 19 19 19 18 18 18 19 19 19 19 18 18 18 17 17 17 17 17 17 17 17 17 18 19 20 19 19 19 19
21 19 18 19 20 20 19 19 19 19 18 18 19 19 19 19 19 19 18 19 19 19 19 18 18 18 18 18 18 18 18 18 18 18 19 19 19 20 20 20 19 19 19
17 17 17 16 16 16 15 14 14 14 14 13 13 14 15 17 18 18 19 19 19 19 19 19 19 19 19 19 19 19 19 19 19 19 19 20 20 20 20 20 20 19 19
15 15 15 15 14 13 12 11 11 11 11 11 11 11 11 12 12 13 14 16 17 17 18 19 19 19 18 19 19 19 19 19 20 19 20 20 20 20 20 20 20 19 19

GFSGL_925_temp_060.txt.gz
Temp
24 24 24 24 24 24 25 25 26 26 26 27 27 27 26 26 26 25 25 25 25 24 24 24 25 25 26 26 26 26 25 25 23 26 26 26 26 25 25 24 24 24 23
24 24 23 23 23 23 23 24 25 26 26 27 26 26 27 26 26 26 25 25 24 24 24 24 24 25 25 26 26 26 25 25 25 24 26 26 26 25 25 25 24 24 24
24 24 23 23 23 23 23 24 24 25 26 27 27 26 26 26 26 26 26 25 25 25 24 24 24 24 24 25 25 25 25 25 25 24 25 25 26 25 25 24 24 24 24
24 24 23 23 23 23 23 24 24 25 25 26 26 27 26 26 26 26 26 25 25 25 25 25 25 24 24 24 25 25 25 25 24 24 24 24 24 24 24 24 23 23 23
25 24 24 23 24 23 23 23 24 24 24 25 25 26 26 26 26 26 26 26 26 25 25 25 25 25 25 25 24 24 24 24 23 22 22 22 23 23 22 23 23 23 23
25 25 25 24 23 23 23 23 23 23 24 24 24 24 25 25 25 26 26 25 25 24 24 25 25 25 24 24 25 24 24 24 22 22 22 21 22 23 24 23 22 21 20
26 26 25 25 24 24 24 23 23 23 23 23 23 24 24 24 25 25 25 25 24 24 24 24 24 24 24 24 24 24 24 24 24 23 22 22 22 23 23 22 22 22 21
27 26 26 25 24 24 24 24 23 23 23 23 23 24 24 24 25 25 25 25 24 24 24 24 23 23 23 23 23 23 23 24 23 23 23 23 23 23 23 23 23 22 20
28 28 26 26 25 24 24 24 24 24 24 23 23 23 24 24 24 24 24 24 23 23 24 23 23 23 23 23 23 23 22 21 23 23 24 24 24 23 23 21 20 19 17
29 28 28 27 26 25 25 25 25 24 24 24 24 24 24 24 24 24 24 24 23 23 23 24 24 23 23 23 23 23 22 22 22 22 22 22 22 22 21 20 20 18 18
29 29 27 27 27 26 26 25 25 25 25 25 24 24 24 24 24 24 24 24 23 23 23 24 24 24 24 24 24 24 23 23 23 22 21 20 20 20 20 20 19 18 17
30 30 29 28 27 26 26 25 25 25 25 24 24 24 24 24 24 24 24 24 24 24 24 24 24 24 24 25 24 24 24 23 22 21 21 20 19 19 19 19 18 18 17
30 30 29 29 29 28 26 26 25 25 25 24 24 24 24 24 24 24 24 24 25 24 24 24 24 24 24 24 24 23 23 23 22 20 20 21 20 20 19 18 17 16 17
29 30 29 28 28 27 26 26 25 25 25 25 24 24 24 24 24 24 25 24 24 24 25 24 24 24 24 23 23 23 22 21 20 19 19 20 20 20 18 17 17 17 17
25 26 27 27 27 26 26 25 25 25 25 25 25 24 24 24 24 25 25 25 25 25 25 23 22 22 22 22 22 21 20 20 19 19 19 19 18 18 17 17 17 16 16
24 24 25 25 26 25 26 24 23 25 25 26 26 25 25 25 25 25 25 25 26 26 23 21 21 21 20 20 20 19 19 19 18 18 18 18 18 17 17 16 16 15 15
23 24 24 24 24 24 22 20 18 20 22 24 26 26 25 26 25 26 26 26 26 24 22 21 20 20 19 19 19 18 17 18 17 17 17 18 17 17 16 16 15 16 15
22 23 23 23 24 23 22 21 21 20 20 21 23 24 25 25 24 25 25 24 21 21 22 21 20 19 19 19 18 17 17 17 17 17 17 17 17 16 16 15 15 15 15
21 22 24 23 24 25 23 21 20 21 20 19 18 19 20 21 22 22 22 22 21 20 20 20 20 20 19 18 17 17 17 17 17 17 17 17 16 16 16 15 15 15 15
21 22 24 23 24 24 22 20 20 19 18 17 16 17 17 18 19 19 20 20 20 20 19 19 19 18 18 17 16 16 16 16 16 16 17 17 16 16 16 15 16 15 16
21 21 23 22 24 23 21 21 19 18 17 17 17 17 18 19 18 18 18 19 19 18 18 19 19 18 18 17 16 16 16 15 16 16 17 17 16 16 16 17 16 17 17
21 21 22 20 21 20 20 19 19 18 18 18 18 18 18 18 18 18 18 18 18 18 18 18 18 18 18 18 17 17 16 16 16 16 16 16 16 16 16 16 17 17 17
21 21 21 20 20 20 19 18 18 17 17 18 18 18 18 18 18 18 18 18 18 18 18 18 18 18 18 17 17 17 17 17 17 16 16 16 16 16 17 17 17 17 17
21 20 19 17 18 17 16 16 16 16 16 16 16 17 17 18 18 17 18 18 18 18 18 18 18 18 18 17 17 17 17 17 17 17 17 17 16 17 18 18 18 18 18
17 17 16 16 15 14 13 13 13 12 12 13 13 13 14 15 16 16 16 17 17 17 17 18 18 18 18 18 18 18 18 18 18 18 18 18 18 18 19 19 19 18 18
14 13 13 12 12 11 11 10 10 10 10 10 10 10 10 11 12 12 13 15 15 16 16 17 17 17 17 17 18 18 18 19 19 19 19 19 19 19 19 19 20 19 18

GFSGL_925_temp_063.txt.gz
Temp
23 23 23 23 23 24 24 25 25 25 25 26 26 26 26 26 26 25 25 25 24 24 24 24 24 24 24 24 24 24 24 24 21 24 25 26 26 26 26 25 25 24 24
24 23 23 23 23 23 24 24 25 26 26 26 26 26 26 26 26 25 25 25 25 24 24 24 24 24 24 24 24 24 24 24 23 23 25 25 25 26 26 25 25 25 24
24 24 23 23 23 23 23 23 24 25 25 25 25 25 26 26 26 26 26 25 25 25 25 24 24 24 24 24 24 24 24 24 24 23 22 24 25 25 25 25 25 25 24
24 24 23 23 23 23 24 24 24 24 24 25 25 25 26 26 26 26 26 25 25 25 25 25 25 24 24 24 24 24 24 24 23 23 22 23 23 24 23 24 24 24 24
24 23 23 23 23 23 23 23 24 23 24 24 25 25 25 26 26 26 26 26 25 25 25 25 25 25 25 25 24 24 24 23 22 22 20 21 21 21 22 23 22 23 24
24 24 24 23 23 23 23 23 23 23 23 23 23 24 25 25 25 26 26 26 26 25 25 25 25 25 25 25 25 24 23 23 21 21 21 21 21 22 22 22 22 21 19
24 24 24 23 22 22 22 22 22 22 22 22 23 23 23 24 25 25 25 25 24 24 25 25 24 24 24 24 24 24 24 23 23 23 22 21 22 22 22 22 20 21 21
25 24 24 23 23 22 22 22 22 22 22 22 23 23 23 23 24 24 25 25 24 24 24 24 24 23 23 23 23 23 23 24 23 23 23 23 22 22 22 22 21 20 20
25 25 24 24 23 23 22 23 23 23 22 22 23 23 22 23 23 24 24 24 23 23 23 23 23 23 23 23 23 22 22 22 22 23 23 23 23 23 22 21 19 18 18
26 25 25 24 24 23 23 23 23 23 23 23 22 22 23 23 24 24 23 23 22 22 22 22 23 23 23 23 22 22 22 22 22 22 21 22 23 23 22 21 19 18 18
27 27 26 25 25 24 24 24 23 23 23 23 23 23 23 23 24 24 24 23 22 22 22 22 22 23 23 23 23 23 22 24 22 22 22 21 21 21 21 22 20 18 18
28 28 28 27 26 25 25 25 24 24 23 23 23 23 23 23 24 24 24 24 24 23 23 23 23 23 24 23 23 24 24 23 22 21 21 21 21 21 21 21 20 20 18
27 27 27 28 27 26 25 24 24 24 24 23 23 23 23 23 23 24 24 24 24 24 23 23 24 24 23 23 24 23 23 22 21 20 20 20 21 20 20 20 19 18 17
25 25 25 25 25 25 26 25 24 24 24 24 23 23 23 24 24 24 24 24 24 24 24 24 23 23 23 23 23 23 22 21 20 20 20 20 19 19 19 19 18 17 16
24 24 24 24 24 24 24 24 24 25 24 24 24 24 23 23 24 25 25 25 25 25 25 22 21 22 21 21 22 21 21 20 20 19 18 18 18 18 18 17 17 16 16
22 23 23 24 24 24 24 23 23 23 24 25 25 25 25 25 24 25 25 25 25 25 22 21 21 21 21 21 21 20 20 19 19 18 17 18 17 17 17 16 16 16 16
20 21 22 22 23 23 22 22 19 20 22 23 24 25 25 25 25 25 25 24 24 23 21 21 21 21 21 21 20 20 19 18 18 17 17 17 16 16 16 15 16 15 15
20 21 21 22 22 22 22 22 21 20 19 20 22 24 25 25 25 24 24 24 23 21 21 21 20 20 20 19 19 19 18 17 17 16 17 17 17 16 16 16 15 14 14
20 20 20 21 21 22 22 22 21 21 20 20 19 21 23 23 23 23 23 23 22 20 20 20 20 20 19 19 19 18 18 17 17 17 16 16 16 16 16 15 15 15 15
20 21 20 20 21 21 21 21 20 20 19 18 18 19 19 19 19 19 20 21 21 21 21 20 20 19 19 19 18 17 17 17 16 16 16 16 16 16 16 16 16 15 15
18 20 21 21 21 21 21 20 20 19 18 17 18 18 19 19 19 19 20 20 20 20 19 19 19 19 18 18 16 16 16 15 15 16 17 16 16 15 16 15 16 16 16
17 18 20 21 21 22 21 20 19 19 18 17 17 17 17 18 19 19 19 19 19 19 19 19 18 18 18 18 17 16 15 15 15 15 16 16 16 16 15 15 15 15 15
17 18 19 20 20 19 20 19 18 17 17 17 17 17 17 18 18 18 18 18 18 18 18 18 18 18 17 17 17 17 17 17 17 17 17 16 16 16 15 15 15 15 16
17 18 19 19 18 17 17 16 16 16 16 16 16 17 17 16 16 16 17 17 17 17 17 17 17 17 17 17 16 16 17 17 17 16 16 16 16 16 16 15 16 16 17
18 18 17 16 16 14 14 13 13 13 13 13 13 13 14 15 14 15 16 16 16 16 16 16 16 16 16 16 17 17 17 18 18 17 17 16 16 16 16 17 17 17 17
13 13 13 13 12 12 11 10 10 10 9 9 10 11 11 9 11 11 12 14 14 15 14 15 15 15 16 17 18 18 18 18 18 18 18 17 17 17 17 17 18 17 18

GFSGL_925_temp_069.txt.gz
Temp
23 23 23 23 23 23 23 23 23 25 25 25 25 26 25 25 25 24 24 23 23 23 23 23 23 23 24 24 23 23 23 22 24 26 25 23 23 24 25 25 26 26 25
23 23 23 23 23 23 23 23 23 24 26 26 25 25 25 25 25 24 23 24 23 23 23 23 23 23 22 22 23 23 23 23 23 24 25 24 23 23 23 24 24 24 23
24 23 23 23 23 22 23 23 23 24 26 26 25 25 25 24 24 24 24 23 23 23 23 23 23 23 23 24 23 24 24 23 23 22 24 25 24 23 23 22 22 23 22
25 24 24 23 23 23 23 23 23 24 25 25 25 26 25 24 24 24 24 23 23 24 24 23 23 23 23 23 23 23 23 23 24 23 23 24 24 24 23 22 23 24 24
25 24 24 23 23 23 22 22 22 23 24 25 25 25 25 24 24 24 24 24 23 24 23 23 23 24 25 25 24 24 24 23 24 25 25 25 26 26 25 25 24 24 23
24 24 24 23 23 22 22 22 22 22 22 23 23 24 23 24 25 25 25 24 24 24 24 24 23 24 25 26 26 26 24 24 23 24 25 26 25 24 24 24 24 23 24
24 24 24 23 23 22 22 22 22 22 22 22 22 22 23 23 25 25 25 24 24 24 23 24 24 25 24 23 24 25 25 25 24 23 23 23 23 23 23 23 22 22 21
24 24 23 23 23 22 22 22 22 22 22 22 22 22 23 23 25 26 25 24 23 23 23 23 23 24 24 24 23 24 23 23 22 23 21 22 22 22 22 22 21 21 20
24 24 23 23 23 22 22 22 22 22 22 22 22 22 22 23 24 26 24 22 23 22 23 23 23 23 23 23 22 23 23 24 24 23 22 22 23 23 23 21 20 20 21
25 24 24 23 23 23 22 22 22 22 23 23 23 22 22 23 24 25 24 23 23 23 23 22 22 22 23 22 22 23 23 24 24 24 23 22 23 24 24 23 22 20 20
25 24 23 23 23 23 23 22 22 22 23 23 23 23 22 22 23 24 24 22 23 24 24 25 24 23 23 24 24 22 22 23 23 22 22 22 22 22 22 22 21 21 20
24 24 23 23 24 24 23 23 22 22 23 23 23 23 24 23 22 23 24 24 23 23 24 25 25 24 23 24 23 22 23 23 21 21 21 21 21 21 21 21 20 20 19
24 24 24 23 23 24 23 23 23 23 24 24 25 25 25 25 24 23 23 24 23 22 23 24 24 23 23 23 23 23 23 22 20 20 21 21 22 21 20 19 19 19 18
24 24 24 24 23 24 24 24 24 25 25 25 25 26 26 26 25 25 23 22 22 22 22 21 22 22 22 22 22 23 22 22 21 21 21 21 21 20 19 18 18 17 17
24 24 23 24 23 24 25 25 25 25 25 26 26 26 26 26 26 25 25 24 23 22 22 21 21 21 21 21 21 22 22 22 22 22 21 20 20 19 18 17 17 16 17
22 23 22 24 24 24 25 23 24 24 24 24 25 25 26 25 25 25 25 25 25 24 22 21 21 21 21 21 21 21 21 21 21 21 20 20 19 18 17 17 16 17 17
19 20 20 23 24 24 22 22 23 22 23 23 23 23 23 24 23 24 24 24 24 23 21 22 22 21 21 21 21 21 21 21 21 20 20 19 18 18 17 17 17 17 16
19 19 20 22 23 23 24 24 24 23 24 24 23 24 24 23 23 23 23 23 22 22 21 21 22 22 21 21 21 21 21 21 20 19 19 18 17 18 16 16 17 16 15
18 20 20 21 22 22 22 23 23 22 23 24 22 22 23 23 23 22 22 22 22 23 22 21 22 22 21 21 21 21 20 20 19 20 20 17 17 17 17 18 17 16 16
17 17 16 17 20 22 23 24 24 22 21 21 23 23 20 19 19 20 21 21 22 23 24 22 21 21 21 20 20 20 19 18 18 19 18 19 18 17 18 17 17 17 16
15 17 16 18 20 22 23 24 25 24 22 20 21 21 20 19 22 21 20 20 21 23 23 22 21 20 20 19 19 19 19 18 18 17 18 17 18 16 17 17 18 17 17
12 15 17 19 20 21 21 23 24 24 22 20 20 19 19 19 20 20 20 20 22 21 21 21 21 21 20 19 19 18 19 20 19 18 17 17 17 16 16 16 17 18 17
11 12 13 15 18 19 20 21 23 23 23 22 20 18 18 18 18 20 21 20 20 19 19 20 20 19 19 18 18 18 19 18 18 17 15 16 16 16 15 15 15 17 19
12 12 12 14 17 19 20 21 22 21 21 21 20 18 17 17 17 18 19 19 17 17 18 18 18 18 17 17 17 17 18 18 18 17 16 16 15 15 15 15 15 15 18
8 10 14 14 17 19 20 20 20 20 19 17 16 15 16 16 16 15 15 15 15 14 14 14 15 15 15 15 15 16 16 16 16 17 17 16 17 17 17 18 18 17 18
6 6 7 8 10 12 13 12 11 10 9 10 10 11 11 11 11 11 12 12 10 11 11 12 13 13 13 14 15 16 16 16 16 16 16 16 17 17 17 18 18 18 18

GFSGL_925_temp_072.txt.gz
Temp
26 25 25 25 25 25 25 25 25 25 25 25 25 25 25 25 25 25 25 26 25 25 25 25 25 25 26 27 27 26 27 27 27 28 29 29 27 24 24 25 25 25 26
26 25 25 25 25 26 25 25 25 25 24 24 25 25 25 26 25 25 25 26 25 25 25 25 25 26 25 25 26 26 27 27 26 26 27 27 27 27 26 24 24 25 26
27 26 26 25 26 25 25 25 25 25 24 25 25 25 25 25 26 25 25 25 26 26 26 26 26 26 25 26 26 27 27 27 26 27 27 28 28 28 27 26 26 26 25
28 27 26 25 25 25 25 25 25 25 25 25 25 25 25 25 26 26 26 25 26 26 26 26 26 26 26 26 25 25 26 25 27 27 28 28 29 28 28 27 28 28 28
29 28 27 26 25 25 25 25 25 25 25 25 25 25 25 26 26 26 26 26 26 26 26 26 26 26 26 25 26 27 27 26 28 29 29 30 30 30 29 28 28 28 28
29 28 28 26 25 25 25 25 25 25 25 25 25 25 26 26 27 27 26 26 26 26 26 26 26 26 25 25 25 26 25 25 26 27 28 29 28 27 28 28 28 27 27
28 28 27 26 25 25 25 25 25 25 25 24 25 25 25 26 26 26 26 26 26 26 26 26 26 28 27 26 26 25 24 25 24 23 23 25 25 25 25 25 25 24 24
28 27 26 26 25 25 25 25 24 25 25 24 25 25 25 25 25 25 25 25 25 25 25 26 26 26 26 26 26 26 26 26 25 24 23 23 23 24 24 23 22 22 22
27 27 26 26 26 25 25 25 25 25 25 25 25 25 25 25 25 25 24 24 25 24 25 25 25 25 25 25 25 25 25 26 26 26 25 25 24 24 23 21 20 22 22
27 27 26 26 26 25 25 25 25 25 25 26 26 25 25 25 25 24 24 25 26 26 26 25 24 24 24 24 24 24 24 25 26 26 26 25 24 24 24 22 22 21 21
27 27 26 26 25 25 25 25 25 25 26 25 26 26 25 25 24 24 23 23 26 27 27 28 28 27 25 24 23 23 24 25 25 25 25 25 25 25 25 23 22 21 21
27 27 26 26 26 26 25 25 25 25 25 26 25 26 26 25 24 24 23 23 24 26 27 29 29 28 27 25 24 23 23 22 23 24 24 23 23 24 23 22 21 21 21
27 27 26 26 25 27 25 25 25 25 26 26 27 27 28 28 27 25 24 23 23 23 25 27 27 26 26 25 24 23 23 22 23 23 23 24 25 24 22 21 20 20 18
26 26 26 26 25 26 26 26 26 27 27 28 29 29 29 30 29 29 26 24 23 22 22 23 24 24 24 25 24 23 22 23 24 24 23 25 24 22 21 20 19 19 17
26 26 26 26 25 26 27 28 28 28 29 29 30 30 30 30 30 29 29 28 26 24 23 24 24 24 23 22 23 23 24 23 22 22 22 22 21 21 20 20 19 20 20
26 26 27 28 27 27 28 27 26 25 27 28 28 29 30 30 28 28 27 27 26 25 24 25 25 23 22 22 22 22 22 22 22 21 21 21 21 21 21 21 20 21 22
23 24 26 27 27 27 28 28 28 25 25 25 26 25 26 26 26 26 25 24 24 23 23 24 24 22 22 24 23 23 22 22 21 20 20 20 21 21 20 22 21 21 22
21 21 24 25 24 24 24 25 26 24 24 26 24 24 24 24 24 24 24 23 23 22 22 22 23 23 23 25 25 24 23 22 21 21 21 20 21 21 20 21 21 21 20
19 21 22 23 25 25 25 30 25 26 25 27 28 24 23 23 23 23 22 21 26 27 27 25 25 26 26 26 25 24 22 21 21 20 20 20 20 22 21 21 20 19 20
20 19 19 21 22 24 24 25 26 27 27 27 29 30 22 19 22 21 20 20 22 25 27 28 28 26 24 24 23 22 21 20 20 20 20 20 21 22 23 21 20 20 18
19 21 20 23 25 26 26 27 28 29 29 29 28 27 25 26 27 28 28 23 22 24 25 27 28 27 25 24 22 20 19 20 19 20 21 22 23 23 23 23 21 19 20
17 19 21 23 24 25 26 26 27 28 29 29 28 26 21 21 23 25 26 25 25 25 25 25 26 26 26 24 23 23 21 21 21 21 23 23 22 22 22 21 20 20 20
15 17 18 19 21 22 22 24 26 27 28 29 29 28 26 23 23 23 23 24 24 24 24 23 23 24 23 21 21 21 21 21 22 22 22 22 22 22 20 19 20 19 18
12 12 14 16 18 20 23 25 26 25 25 26 27 27 27 25 23 21 20 21 22 22 23 22 22 22 22 21 21 21 21 22 22 22 21 20 20 21 20 18 18 19 19
7 8 8 10 11 16 21 23 24 24 22 18 19 19 16 16 16 16 17 18 19 19 18 18 19 19 19 19 21 21 20 20 20 21 19 18 19 18 18 18 17 17 17
5 5 5 5 5 5 7 8 9 9 10 9 9 10 10 10 10 12 13 14 15 13 14 13 13 13 14 13 15 16 17 18 18 18 19 18 18 19 19 18 19 19 19

GFSGL_925_temp_075.txt.gz
Temp
26 26 26 25 25 25 26 26 26 27 27 26 27 26 26 26 26 25 26 27 26 26 26 27 27 26 27 28 29 29 28 29 29 29 30 30 29 28 27 26 25 25 26
27 26 26 26 26 26 26 26 26 26 26 26 26 26 26 26 26 26 25 27 26 27 27 26 27 27 26 26 27 28 28 28 28 28 28 28 28 29 28 27 26 27 27
27 27 27 26 26 26 26 26 26 26 25 25 25 25 26 26 26 26 26 26 27 27 27 27 27 27 26 27 27 28 29 28 28 28 28 29 29 29 29 29 29 28 28
29 28 28 26 26 26 27 26 26 26 26 25 25 25 26 26 26 26 26 26 26 27 27 27 27 27 27 27 27 26 26 27 27 28 28 29 30 31 30 30 30 30 30
30 29 29 27 26 26 27 27 26 26 26 25 25 26 26 26 27 26 27 27 26 26 27 27 27 27 27 27 27 28 28 27 28 29 30 31 31 31 29 29 29 29 29
31 30 29 28 27 26 26 26 26 26 26 26 26 26 26 27 28 28 27 27 27 27 27 27 27 27 27 26 26 26 26 25 25 27 28 29 28 28 28 28 28 27 28
31 30 29 28 27 26 26 27 26 26 26 26 26 26 26 26 28 28 28 27 27 27 27 26 27 28 28 27 27 26 26 26 25 24 24 24 25 25 25 24 25 25 25
31 30 29 28 27 26 27 26 26 26 26 26 26 26 26 26 27 27 27 27 27 27 27 27 26 27 27 28 28 27 27 26 26 26 25 24 23 24 25 25 24 23 24
30 30 29 29 28 27 26 27 26 26 26 26 26 26 26 26 27 27 26 26 26 26 26 26 26 26 26 26 26 26 26 26 27 27 27 27 27 26 25 24 23 23 25
30 30 29 29 28 27 27 27 26 26 26 27 27 26 26 26 26 26 26 26 27 27 27 26 25 25 26 26 25 25 25 25 26 26 26 27 26 25 25 24 23 23 23
30 30 29 28 28 27 27 27 26 26 28 27 28 27 27 26 26 26 25 25 27 28 28 29 29 28 28 27 26 25 25 25 25 25 26 27 26 25 25 25 24 23 22
30 29 29 28 27 27 27 26 26 26 26 27 26 27 28 26 26 25 25 25 25 26 28 31 31 31 30 29 28 27 26 24 23 24 25 27 26 26 26 25 24 22 21
29 29 28 28 27 28 27 26 26 26 27 27 28 28 29 30 28 27 26 25 25 24 26 28 29 29 28 27 27 26 25 23 23 25 26 26 25 26 25 24 23 21 21
28 28 28 27 27 27 27 27 27 28 28 29 29 30 30 30 31 30 28 26 25 24 23 24 26 26 26 26 26 25 24 24 25 26 25 25 26 26 24 21 21 20 19
28 28 28 28 27 27 28 29 28 29 30 30 31 31 31 32 32 32 31 27 25 24 24 24 25 25 26 26 27 26 26 25 24 25 25 25 25 25 22 22 20 22 20
26 27 28 29 28 28 28 27 28 28 29 29 29 29 32 30 30 31 31 29 27 27 24 26 27 28 28 28 27 25 25 26 25 25 25 25 23 22 21 21 21 22 24
20 23 29 29 30 29 30 30 29 26 27 27 28 28 27 26 25 26 27 28 27 26 26 28 28 29 29 25 24 23 24 24 24 24 24 23 22 21 21 21 22 22 24
19 20 23 28 30 30 31 30 31 29 28 27 27 28 28 28 26 25 24 24 25 25 26 27 28 28 25 25 26 28 28 28 25 24 23 22 21 21 21 21 22 23 24
17 17 19 22 24 27 29 29 29 27 28 28 26 26 26 26 26 26 25 23 26 28 29 27 28 27 27 26 27 28 28 28 26 24 22 22 21 21 22 22 23 24 24
17 17 19 19 21 23 26 27 26 28 25 25 27 27 24 25 24 24 23 22 24 26 29 30 31 30 30 29 29 27 26 25 23 22 21 21 21 21 21 21 23 24 22
17 18 19 20 21 23 24 24 28 28 27 27 26 28 25 26 27 29 28 25 25 25 27 28 29 30 29 28 27 25 24 24 24 23 21 20 20 20 21 23 24 23 23
18 20 21 21 22 23 24 25 27 27 28 28 28 29 28 28 27 28 29 30 29 28 27 27 28 28 28 27 26 25 25 24 24 22 20 20 20 21 22 24 25 25 23
17 18 20 21 22 22 22 25 28 29 30 31 31 31 28 28 27 28 28 27 28 28 28 27 26 26 27 26 26 26 25 24 24 23 22 22 22 23 24 24 25 25 23
12 13 14 17 18 18 22 24 27 28 28 29 29 30 28 28 28 26 23 21 22 22 24 25 25 25 25 25 24 23 23 22 23 23 23 23 24 24 23 24 23 22 21
6 6 6 7 9 10 13 15 14 15 17 16 15 15 15 16 16 15 15 15 16 19 20 19 19 19 20 20 20 20 21 22 22 22 23 23 23 22 22 23 21 20 20
4 4 4 4 4 4 4 5 5 5 5 6 5 6 6 6 7 7 8 10 12 12 13 14 14 14 13 14 16 17 18 19 20 21 21 22 21 20 20 19 19 19 19